Location: Potomac
(46.8816°N, 113.5795°W)
Time: 07:46:47
(UTC+00:00)

DX 1 - Visible Passes

Search period start: 27 June 2022 00:00
Search period end: 07 July 2022 00:00
Orbit: 618 x 628 km, 98.4° (Epoch: 26 June)

Date Brightness Start Highest point End Pass type
(mag) Time Alt. Az. Time Alt. Az. Time Alt. Az.
27 Jun ? 05:12:05 10° N 05:16:24 61° WNW 05:20:42 10° SSW visible
28 Jun ? 05:30:30 10° N 05:34:36 40° WNW 05:38:41 10° SW visible
29 Jun ? 04:12:45 10° NNE 04:16:45 33° E 04:20:42 10° SSE visible
29 Jun ? 05:49:03 10° N 05:52:46 28° WNW 05:56:27 10° WSW visible
30 Jun ? 04:30:49 10° NNE 04:35:06 50° E 04:39:20 10° S visible
30 Jun ? 06:07:44 10° NNW 06:10:52 20° WNW 06:13:59 10° WSW visible
01 Jul ? 04:49:00 10° NNE 04:53:24 78° ESE 04:57:45 10° S visible
01 Jul ? 06:26:43 10° NNW 06:28:55 14° WNW 06:31:08 10° W visible
02 Jul ? 05:07:17 10° N 05:11:39 70° WNW 05:15:59 10° SSW visible
03 Jul ? 05:25:40 10° N 05:29:52 46° WNW 05:34:02 10° SW visible
04 Jul ? 04:08:05 10° NE 04:11:55 29° E 04:15:44 10° SSE visible
04 Jul ? 05:44:10 10° N 05:48:02 31° WNW 05:51:52 10° SW visible
05 Jul ? 04:26:05 10° NNE 04:30:17 44° E 04:34:27 10° S visible
05 Jul ? 06:02:47 10° NNW 06:06:08 22° WNW 06:09:29 10° WSW visible
06 Jul ? 04:44:14 10° NNE 04:48:36 67° ESE 04:52:56 10° S visible
06 Jul ? 06:21:38 10° NNW 06:24:13 16° WNW 06:26:47 10° W visible
